Temp
-4 -4 -4 -4 -3 -3 -3 -2 -2 -2 -1 -0 -0 0 0 0 0 0 0 0 1 0 2 3 4 5 5 6 7 6 5 5 6 6 7 8 8 10 9 10 10 9 8 8 8 7 7 12 10 9 10 9 9 8
-4 -4 -4 -4 -4 -3 -4 -3 -3 -2 -1 -0 -0 -0 -0 0 0 0 0 -0 0 1 -0 1 2 3 4 5 6 5 7 7 7 7 9 9 9 9 9 8 11 9 11 10 10 10 10 9 10 9 9 9 8 7
-5 -4 -4 -4 -3 -3 -3 -3 -1 -0 -0 -0 -0 -1 -1 -0 0 0 -0 -0 -0 -1 -0 0 2 2 3 3 3 5 5 5 5 5 5 7 6 9 8 9 9 10 10 9 9 9 10 10 9 9 9 7 6 5
-4 -4 -4 -4 -4 -4 -3 -2 -1 -0 -1 -0 -0 -1 -0 -1 -0 0 -0 -0 1 0 0 1 2 2 2 2 3 3 3 3 4 4 5 6 6 8 7 9 7 9 9 9 8 9 9 9 9 8 7 7 4 4
-4 -4 -4 -4 -4 -4 -3 -2 -1 -1 -0 -1 -1 -1 -1 -1 -1 -1 -1 -0 0 1 2 2 1 1 2 2 2 3 3 3 3 4 5 5 7 6 7 7 7 8 9 7 7 9 8 8 7 6 6 5 4 3
-4 -4 -4 -4 -4 -4 -3 -2 -2 -2 -1 -1 -1 -1 -1 -1 -1 -1 -1 -1 -0 0 2 3 2 2 1 2 2 3 2 3 3 3 4 5 5 5 5 6 8 7 8 8 8 8 8 7 6 5 4 3 2 2
-4 -4 -4 -3 -4 -4 -3 -3 -3 -3 -2 -2 -2 -2 -2 -2 -1 -1 0 -0 -1 0 1 3 3 2 2 2 2 3 3 3 3 3 3 4 4 4 5 5 7 7 8 8 8 8 8 7 7 5 3 2 1 1
-4 -4 -3 -3 -4 -4 -3 -3 -3 -3 -3 -2 -2 -2 -2 -2 -1 -1 -1 -1 -1 -1 0 3 3 2 2 2 2 2 2 2 2 2 4 5 6 5 4 6 6 6 6 7 7 7 7 7 6 5 2 1 0 0
-4 -4 -3 -4 -3 -3 -3 -3 -3 -3 -2 -2 -2 -2 -3 -2 -2 -2 -2 -2 -2 -1 2 2 3 3 2 3 3 2 2 2 3 4 4 5 5 4 5 6 6 6 7 7 8 8 7 6 4 3 2 1 0 -0
-4 -4 -3 -3 -3 -3 -3 -3 -3 -3 -3 -3 -3 -2 -4 -3 -2 -2 -3 -3 -2 -1 0 3 4 3 3 3 2 2 0 2 4 5 5 3 5 5 6 6 6 7 7 7 7 8 5 4 3 3 1 0 -0 -1
-4 -4 -4 -3 -3 -3 -4 -4 -3 -3 -4 -3 -3 -3 -3 -3 -2 -2 -3 -2 -1 -1 1 3 4 4 3 3 3 3 2 4 3 6 5 5 6 7 7 6 6 6 7 7 7 7 5 4 3 2 0 -1 -1 -2
-4 -4 -4 -4 -4 -4 -4 -4 -4 -4 -3 -3 -3 -3 -3 -3 -2 -1 -1 0 1 2 2 3 4 4 3 2 3 2 3 4 3 5 3 5 7 8 8 8 8 7 7 7 7 6 4 3 2 1 -1 -2 -3 -4
-3 -4 -4 -4 -4 -4 -4 -4 -4 -4 -3 -3 -2 -3 -1 -2 -1 -1 -0 -0 2 2 2 3 4 3 1 2 3 3 1 2 5 3 4 7 8 7 5 5 4 3 4 5 5 3 2 1 0 -1 -2 -3 -4 -4
-3 -3 -4 -4 -4 -4 -4 -4 -3 -3 -3 -3 -2 -2 -1 -1 -1 1 2 3 3 2 2 3 3 3 3 2 2 1 4 4 3 3 5 8 5 2 2 1 1 0 1 2 1 0 -0 -1 -1 -3 -3 -3 -4 -4
-3 -3 -3 -3 -3 -4 -4 -3 -3 -3 -2 -0 1 0 0 1 2 2 2 2 2 2 2 3 3 3 3 2 3 3 3 3 4 5 7 5 1 -0 -1 -1 -1 -1 -1 -1 -1 -1 -1 -2 -3 -4 -3 -4 -4 -4
-3 -3 -4 -3 -3 -3 -3 -3 -3 -3 -2 0 1 0 1 1 0 -0 0 2 2 2 3 3 3 2 2 3 3 3 4 4 6 6 3 1 -1 -2 -1 -1 -1 -1 -1 -1 -2 -2 -3 -3 -3 -3 -4 -4 -4 -4
-4 -3 -3 -3 -3 -3 -4 -4 -3 -3 -1 -0 0 -1 -1 1 1 -1 -1 1 2 2 3 4 2 1 3 4 3 5 4 5 4 2 -0 -1 -2 -2 -1 -0 -1 -1 -1 -2 -2 -3 -3 -3 -4 -4 -4 -4 -4 -5
-2 -3 -3 -3 -3 -4 -4 -3 -2 -2 -1 -1 -1 -1 -1 -1 -1 -1 -0 1 1 2 3 4 5 3 3 4 5 5 3 -1 -2 -2 -2 -2 -2 -2 -1 -1 -1 -2 -2 -2 -2 -3 -3 -4 -4 -5 -4 -5 -5 -5
-2 -2 -3 -3 -3 -3 -3 -3 -2 -1 -0 0 -1 -2 -2 -1 -1 -1 -0 1 1 2 3 3 3 3 4 5 3 1 -1 -1 -1 -2 -3 -3 -3 -2 -2 -1 -1 -2 -2 -2 -3 -3 -4 -5 -5 -5 -5 -5 -7 -7
-2 -3 -3 -3 -2 -1 -1 -1 -2 -1 -1 -1 -2 -2 -1 -1 -1 -1 -0 1 1 2 2 3 3 4 2 0 -1 -1 -2 -2 -2 -3 -3 -4 -3 -2 -2 -2 -2 -2 -2 -3 -4 -3 -4 -5 -6 -6 -6 -7 -8 -8
-3 -3 -3 -3 -3 -2 -2 -2 -1 -0 -0 -1 -1 -1 -1 -2 -2 -1 -1 -1 -1 0 2 1 1 -1 -2 -3 -2 -3 -3 -3 -3 -2 -2 -4 -4 -3 -3 -4 -2 -3 -3 -4 -3 -4 -5 -6 -6 -6 -6 -7 -8 -8
-3 -3 -3 -3 -2 -2 -2 -3 -3 -2 -2 -1 -2 -1 -1 -1 -1 -2 -2 -2 -1 -1 -1 -0 -1 -3 -3 -3 -3 -3 -3 -3 -4 -3 -3 -3 -3 -4 -4 -4 -4 -4 -4 -3 -5 -4 -5 -6 -5 -5 -6 -7 -8 -9
-3 -3 -2 -3 -2 -3 -2 -3 -3 -2 -0 -1 -2 -0 -0 -0 -1 -2 -1 -1 -2 -3 -3 -2 -3 -3 -3 -4 -3 -3 -3 -4 -4 -4 -4 -4 -4 -4 -4 -5 -4 -4 -5 -5 -5 -5 -5 -5 -6 -6 -7 -8 -9 -10
-3 -2 -3 -3 -2 -1 -3 -2 -3 -2 -2 -1 -0 -0 0 -0 -1 -0 0 -1 -3 -3 -3 -3 -3 -4 -4 -4 -4 -4 -5 -4 -5 -4 -4 -4 -4 -5 -5 -5 -5 -5 -5 -5 -5 -6 -5 -6 -7 -7 -8 -10 -11 -11
-3 -4 -4 -2 -3 -2 -2 -1 -1 -1 -1 -1 -1 -0 -1 -1 -0 0 1 -1 -3 -3 -3 -3 -3 -3 -3 -3 -4 -5 -5 -5 -5 -5 -5 -5 -5 -5 -5 -5 -5 -5 -5 -5 -6 -6 -7 -7 -8 -9 -10 -11 -11 -11
-2 -4 -4 -2 -2 -2 -0 -1 -1 -1 -1 -1 -1 -2 -2 -0 -0 0 1 -2 -3 -4 -4 -4 -4 -3 -3 -4 -4 -5 -5 -6 -6 -6 -6 -6 -6 -6 -6 -7 -7 -7 -6 -7 -7 -8 -8 -9 -10 -10 -11 -11 -12 -12
-3 -3 -4 -5 -4 -3 -3 -2 -2 -1 -2 -1 -1 -1 -1 -0 1 -0 -5 -5 -5 -5 -4 -4 -4 -4 -4 -5 -5 -5 -5 -6 -6 -6 -6 -6 -6 -6 -7 -7 -7 -7 -7 -7 -7 -8 -9 -9 -9 -10 -11 -12 -12 -12
-4 -5 -4 -5 -4 -4 -3 -3 -3 -2 -2 -3 -2 -2 -1 -0 -0 -5 -6 -7 -6 -6 -5 -5 -4 -5 -5 -5 -4 -5 -5 -6 -6 -6 -6 -6 -6 -7 -7 -7 -7 -7 -7 -7 -8 -8 -9 -9 -9 -10 -10 -10 -11 -11
-5 -6 -6 -6 -5 -4 -4 -3 -3 -4 -5 -4 -3 -2 -2 -5 -7 -7 -8 -7 -6 -6 -6 -5 -5 -5 -5 -5 -5 -5 -6 -6 -6 -7 -7 -7 -8 -7 -7 -7 -7 -8 -8 -8 -8 -9 -9 -9 -10 -10 -10 -10 -11 -11
-5 -7 -5 -6 -5 -4 -5 -6 -5 -6 -6 -6 -6 -6 -6 -7 -8 -7 -7 -7 -7 -7 -7 -7 -6 -6 -6 -6 -6 -6 -6 -6 -7 -7 -7 -7 -7 -7 -7 -7 -8 -8 -8 -9 -9 -9 -9 -9 -9 -10 -10 -11 -12 -12
-7 -6 -5 -5 -4 -5 -6 -7 -7 -7 -7 -6 -7 -6 -6 -7 -8 -7 -7 -7 -7 -7 -7 -7 -7 -7 -7 -7 -7 -7 -7 -7 -7 -7 -7 -7 -7 -7 -7 -8 -8 -8 -8 -9 -9 -9 -9 -10 -10 -11 -11 -12 -12 -12
-6 -6 -5 -5 -4 -6 -7 -7 -6 -6 -6 -6 -5 -7 -7 -7 -6 -7 -6 -6 -7 -8 -8 -8 -8 -8 -7 -7 -7 -7 -7 -8 -7 -8 -8 -8 -8 -8 -8 -8 -8 -9 -9 -9 -10 -10 -10 -11 -11 -12 -12 -12 -13 -13
-6 -6 -6 -6 -5 -5 -6 -7 -5 -5 -6 -5 -5 -6 -6 -6 -5 -6 -6 -6 -8 -9 -8 -8 -8 -8 -8 -8 -8 -8 -8 -8 -8 -8 -8 -8 -8 -8 -8 -9 -9 -9 -10 -10 -10 -11 -11 -12 -12 -12 -12 -13 -13 -14
Height
1348 1349 1350 1351 1351 1351 1351 1350 1350 1353 1359 1368 1377 1381 1391 1402 1413 1421 1429 1436 1443 1448 1452 1454 1455 1455 1464 1464 1464 1469 1478 1479 1480 1479 1473 1466 1465 1460 1463 1460 1457 1465 1470 1471 1473 1472 1468 1458 1465 1469 1465 1467 1469 1469
1342 1343 1344 1344 1344 1343 1341 1339 1338 1344 1354 1364 1371 1379 1388 1398 1410 1417 1427 1435 1443 1446 1452 1452 1455 1457 1463 1466 1466 1469 1466 1466 1470 1471 1465 1461 1459 1460 1458 1460 1456 1459 1456 1458 1457 1456 1459 1462 1463 1464 1464 1463 1466 1467
1337 1338 1339 1339 1338 1335 1330 1325 1329 1334 1348 1360 1368 1376 1385 1396 1406 1415 1425 1432 1439 1447 1453 1455 1456 1458 1461 1464 1465 1467 1469 1469 1469 1470 1470 1466 1465 1458 1456 1455 1455 1454 1458 1457 1461 1459 1458 1458 1460 1460 1459 1462 1465 1465
1332 1334 1336 1336 1334 1330 1320 1316 1322 1334 1345 1359 1370 1376 1385 1396 1405 1413 1421 1431 1439 1445 1451 1453 1455 1457 1459 1462 1464 1466 1467 1468 1470 1471 1470 1468 1467 1463 1459 1456 1459 1455 1458 1457 1456 1456 1457 1458 1457 1457 1458 1459 1461 1460
1329 1332 1334 1335 1332 1328 1323 1320 1326 1336 1347 1358 1370 1378 1388 1398 1405 1414 1425 1433 1438 1443 1445 1450 1453 1455 1458 1461 1463 1466 1467 1468 1469 1469 1468 1466 1464 1467 1463 1462 1456 1457 1454 1456 1452 1454 1453 1453 1455 1455 1455 1456 1457 1456
1328 1332 1334 1335 1334 1332 1330 1330 1332 1336 1348 1360 1371 1380 1390 1399 1408 1414 1423 1430 1433 1439 1442 1444 1449 1452 1456 1459 1462 1464 1465 1467 1468 1467 1466 1463 1464 1466 1460 1450 1452 1454 1453 1450 1447 1449 1448 1449 1450 1451 1451 1451 1452 1452
1328 1333 1336 1339 1339 1338 1340 1342 1346 1352 1359 1368 1378 1388 1398 1407 1414 1418 1423 1428 1433 1438 1443 1446 1447 1450 1453 1458 1460 1461 1463 1465 1466 1466 1462 1462 1462 1462 1455 1446 1450 1447 1444 1443 1442 1442 1442 1444 1444 1446 1447 1447 1448 1449
1328 1334 1339 1343 1345 1346 1348 1353 1359 1367 1373 1380 1388 1396 1405 1410 1417 1422 1425 1428 1436 1442 1444 1444 1444 1449 1452 1455 1458 1459 1460 1462 1462 1460 1457 1453 1452 1452 1439 1439 1440 1440 1440 1438 1437 1436 1435 1436 1439 1441 1443 1444 1445 1447
1330 1335 1341 1347 1351 1354 1357 1362 1368 1374 1382 1389 1396 1403 1411 1418 1423 1428 1431 1435 1438 1444 1443 1442 1436 1441 1448 1451 1453 1457 1458 1457 1455 1450 1450 1450 1442 1430 1427 1430 1431 1430 1430 1429 1428 1427 1428 1431 1434 1437 1439 1441 1443 1445
1332 1338 1343 1349 1355 1360 1364 1370 1376 1382 1388 1394 1402 1408 1415 1421 1425 1430 1436 1439 1442 1441 1440 1435 1432 1436 1442 1446 1451 1456 1457 1452 1442 1438 1438 1435 1424 1423 1423 1418 1418 1420 1421 1422 1422 1420 1425 1427 1429 1431 1434 1438 1440 1443
1333 1339 1345 1352 1358 1364 1369 1375 1382 1388 1394 1400 1407 1414 1418 1423 1429 1432 1436 1439 1438 1437 1432 1428 1426 1430 1438 1441 1444 1446 1446 1442 1436 1426 1427 1417 1410 1407 1407 1407 1407 1409 1410 1412 1414 1416 1420 1423 1425 1427 1430 1434 1437 1440
1334 1342 1349 1355 1361 1368 1375 1380 1386 1393 1399 1404 1407 1414 1422 1425 1426 1428 1426 1426 1424 1417 1419 1417 1420 1426 1435 1439 1441 1443 1439 1434 1427 1423 1426 1411 1402 1400 1400 1400 1400 1401 1401 1402 1406 1410 1415 1418 1420 1422 1426 1430 1434 1437
1334 1343 1351 1359 1366 1372 1379 1385 1392 1397 1401 1407 1412 1415 1417 1420 1419 1417 1413 1417 1411 1411 1412 1413 1417 1423 1432 1436 1437 1436 1436 1428 1423 1422 1412 1399 1399 1399 1401 1401 1400 1398 1398 1399 1402 1407 1412 1415 1417 1420 1423 1427 1431 1434
1337 1347 1355 1362 1370 1376 1382 1388 1393 1399 1403 1406 1409 1412 1412 1413 1412 1409 1407 1405 1407 1409 1411 1413 1418 1422 1426 1432 1432 1432 1423 1421 1417 1411 1399 1394 1399 1399 1401 1400 1398 1397 1397 1399 1402 1406 1409 1412 1415 1418 1422 1426 1429 1433
1342 1351 1359 1366 1372 1379 1384 1390 1395 1401 1403 1403 1402 1402 1403 1404 1404 1404 1405 1405 1407 1408 1411 1414 1418 1419 1422 1426 1425 1421 1418 1411 1400 1395 1392 1398 1400 1400 1399 1399 1398 1398 1400 1402 1404 1407 1410 1412 1414 1418 1422 1426 1430 1433
1348 1357 1364 1369 1376 1382 1388 1396 1401 1404 1402 1400 1398 1398 1397 1399 1403 1405 1405 1406 1407 1408 1411 1414 1415 1418 1415 1414 1411 1408 1400 1393 1391 1392 1399 1400 1399 1398 1398 1398 1398 1400 1402 1404 1406 1409 1411 1413 1416 1419 1423 1427 1430 1433
1355 1360 1365 1374 1381 1388 1395 1401 1404 1402 1401 1399 1396 1396 1397 1396 1397 1399 1401 1402 1404 1407 1408 1408 1412 1412 1405 1399 1399 1395 1393 1392 1393 1397 1399 1398 1397 1397 1397 1398 1401 1403 1404 1406 1408 1410 1413 1415 1418 1421 1424 1427 1430 1433
1362 1366 1373 1379 1386 1394 1400 1402 1403 1401 1398 1394 1395 1393 1395 1394 1394 1396 1397 1399 1402 1402 1404 1402 1400 1399 1397 1392 1389 1390 1394 1396 1397 1396 1397 1396 1395 1396 1398 1400 1402 1404 1406 1408 1410 1412 1415 1417 1420 1422 1424 1427 1430 1433
1364 1369 1378 1385 1391 1397 1401 1402 1401 1397 1391 1390 1389 1388 1389 1389 1391 1393 1394 1395 1397 1399 1401 1401 1398 1393 1390 1389 1392 1394 1396 1396 1396 1395 1394 1393 1394 1396 1398 1401 1403 1405 1407 1410 1412 1414 1417 1420 1422 1423 1425 1427 1430 1432
1374 1380 1386 1392 1398 1400 1399 1399 1399 1396 1390 1386 1385 1385 1386 1386 1386 1387 1389 1391 1393 1395 1398 1395 1390 1390 1392 1393 1394 1395 1395 1394 1395 1395 1394 1393 1394 1396 1398 1402 1404 1406 1409 1411 1413 1415 1418 1420 1422 1424 1425 1428 1430 1431
1385 1391 1395 1398 1400 1398 1397 1395 1393 1391 1388 1387 1383 1382 1383 1384 1384 1384 1385 1388 1391 1390 1388 1389 1389 1390 1390 1391 1391 1392 1392 1392 1393 1393 1393 1394 1395 1396 1399 1402 1404 1406 1409 1411 1413 1415 1417 1419 1420 1422 1423 1426 1428 1430
1389 1397 1400 1401 1400 1397 1395 1393 1391 1389 1388 1383 1382 1381 1380 1381 1382 1383 1384 1385 1386 1386 1387 1388 1389 1389 1390 1391 1390 1390 1390 1390 1391 1391 1392 1393 1395 1397 1399 1401 1404 1406 1408 1410 1412 1413 1416 1417 1418 1420 1421 1423 1425 1428
1394 1395 1396 1397 1398 1396 1393 1390 1390 1386 1382 1380 1380 1378 1378 1378 1381 1383 1383 1383 1383 1383 1384 1386 1387 1387 1388 1388 1389 1390 1390 1391 1391 1391 1391 1393 1395 1396 1398 1400 1403 1404 1406 1407 1409 1411 1412 1414 1416 1417 1419 1421 1423 1426
1395 1395 1394 1395 1395 1392 1390 1388 1386 1384 1381 1378 1376 1376 1376 1377 1380 1380 1377 1379 1380 1381 1382 1383 1385 1387 1388 1389 1390 1390 1390 1390 1390 1391 1391 1393 1394 1395 1397 1398 1400 1402 1404 1405 1407 1408 1410 1411 1413 1415 1417 1420 1422 1424
1398 1396 1396 1391 1390 1390 1386 1383 1382 1380 1377 1377 1375 1374 1375 1377 1375 1375 1372 1374 1376 1378 1380 1382 1384 1386 1387 1388 1388 1389 1388 1389 1390 1390 1390 1392 1393 1394 1396 1397 1398 1400 1401 1403 1404 1405 1406 1408 1411 1413 1416 1419 1421 1424
1391 1392 1391 1386 1385 1385 1380 1377 1377 1376 1376 1375 1373 1374 1374 1373 1372 1368 1367 1371 1373 1375 1377 1380 1382 1384 1385 1386 1387 1387 1387 1387 1388 1389 1389 1391 1392 1394 1395 1396 1397 1397 1398 1399 1401 1402 1404 1407 1409 1412 1415 1417 1420 1423
1387 1386 1386 1385 1385 1384 1382 1380 1379 1377 1375 1372 1371 1373 1372 1367 1363 1367 1371 1371 1373 1373 1375 1378 1380 1382 1383 1384 1384 1384 1384 1385 1386 1387 1388 1389 1390 1392 1393 1395 1395 1396 1396 1397 1399 1401 1403 1405 1407 1410 1413 1415 1418 1421
1385 1385 1383 1385 1383 1382 1381 1379 1378 1376 1375 1376 1374 1370 1366 1365 1365 1370 1370 1370 1371 1373 1374 1376 1378 1379 1381 1381 1382 1382 1383 1384 1385 1386 1387 1388 1389 1390 1391 1392 1393 1394 1395 1397 1398 1400 1402 1405 1407 1409 1412 1414 1416 1418
1383 1383 1383 1383 1381 1380 1378 1377 1375 1376 1377 1376 1372 1369 1369 1370 1369 1369 1368 1369 1370 1371 1373 1374 1375 1376 1378 1379 1380 1381 1382 1383 1384 1385 1387 1388 1388 1389 1390 1391 1392 1393 1395 1396 1398 1400 1402 1404 1407 1408 1410 1412 1414 1416
1384 1383 1381 1381 1380 1376 1378 1378 1376 1376 1375 1374 1373 1372 1370 1369 1367 1366 1367 1367 1368 1370 1370 1371 1372 1373 1374 1376 1377 1379 1380 1381 1382 1384 1386 1387 1387 1387 1388 1389 1391 1392 1394 1395 1397 1399 1401 1403 1405 1407 1409 1410 1412 1414
1384 1383 1381 1379 1376 1376 1376 1375 1375 1374 1373 1372 1371 1371 1369 1367 1364 1363 1363 1364 1365 1366 1368 1369 1370 1371 1373 1374 1376 1376 1377 1378 1380 1381 1383 1384 1384 1385 1386 1388 1389 1391 1392 1394 1396 1398 1400 1401 1403 1405 1407 1409 1411 1413
1383 1383 1381 1379 1377 1377 1376 1375 1373 1372 1371 1370 1368 1368 1368 1367 1365 1362 1358 1359 1361 1363 1365 1367 1368 1369 1371 1372 1373 1374 1375 1376 1377 1379 1380 1381 1382 1383 1384 1386 1387 1389 1391 1393 1395 1397 1398 1400 1402 1404 1406 1407 1409 1411
1380 1380 1380 1379 1377 1376 1376 1375 1372 1370 1368 1367 1365 1365 1365 1365 1361 1358 1354 1354 1357 1360 1362 1363 1364 1366 1368 1369 1370 1371 1372 1373 1374 1376 1378 1379 1380 1381 1382 1384 1386 1388 1390 1392 1393 1395 1397 1399 1401 1403 1404 1406 1408 1409
Wind_Speed
22 22 23 24 25 27 29 30 33 35 37 41 38 46 51 46 46 45 29 27 19 6 10 13 12 21 16 19 8 15 9 8 9 8 7 7 6 8 11 12 11 12 10 10 12 15 20 4 4 7 8 9 11 14
21 21 20 22 23 26 31 35 31 35 43 38 35 46 50 46 43 42 28 26 24 14 7 9 10 11 15 14 7 17 3 15 11 8 7 6 6 6 11 10 13 12 11 9 8 5 2 4 8 16 21 19 17 16
20 19 18 18 21 26 29 25 31 37 50 39 41 45 43 46 45 41 29 25 19 10 8 8 11 14 13 9 10 8 9 5 5 5 3 3 5 4 9 11 13 12 14 9 8 6 12 13 17 20 19 13 14 13
19 17 15 14 18 21 12 12 38 45 48 44 39 40 40 39 39 36 33 27 13 12 4 8 9 14 13 10 8 9 3 5 4 7 6 4 5 5 8 8 8 8 5 9 14 15 17 19 14 11 12 11 11 10
17 15 11 10 13 11 9 19 45 46 49 53 48 50 45 39 31 29 24 20 15 5 6 9 10 15 12 12 11 8 8 6 7 6 5 6 10 6 10 11 10 16 13 11 12 18 18 15 15 15 12 12 11 7
17 13 11 8 8 4 18 28 34 38 38 42 38 38 35 31 30 25 10 13 18 9 6 4 5 13 15 17 16 13 12 11 11 6 7 11 16 12 7 12 19 27 29 31 26 29 25 17 14 14 13 10 8 8
19 16 12 11 6 8 25 30 35 36 37 38 37 36 35 29 17 8 6 10 21 14 4 4 6 8 15 14 14 16 15 12 12 7 9 17 14 11 11 15 22 25 24 24 26 24 22 24 18 12 12 9 10 10
20 19 17 15 14 8 21 29 28 31 34 34 33 30 29 23 16 11 10 14 19 7 2 3 4 8 15 9 7 15 12 13 8 12 12 12 16 18 10 17 25 28 28 29 31 31 31 27 13 12 12 12 12 12
20 21 21 19 19 18 16 24 26 25 29 31 30 29 24 12 7 9 11 16 13 4 5 5 7 5 16 13 9 8 8 4 9 6 12 10 11 11 10 19 25 27 25 24 21 20 17 15 14 14 14 14 14 13
22 22 22 23 22 23 23 23 25 26 29 30 27 7 5 10 12 16 8 5 4 4 6 6 13 5 15 16 10 7 5 4 6 8 11 7 15 34 36 39 36 33 29 24 22 18 15 18 18 17 17 15 14 15
25 24 24 25 25 25 27 28 29 30 32 22 7 4 11 20 11 6 6 7 10 5 9 14 18 10 14 10 7 9 4 4 4 6 6 4 8 16 26 30 31 31 31 31 25 19 16 18 17 17 16 16 15 16
30 27 26 25 27 29 31 32 34 32 18 15 13 19 20 7 5 5 6 5 6 7 11 16 21 17 13 9 6 5 4 4 6 2 3 4 9 14 11 12 12 13 16 19 22 17 14 14 16 16 17 18 17 18
32 31 29 28 28 31 33 34 33 22 23 18 8 6 6 5 6 6 9 4 5 6 12 20 12 14 6 8 4 4 5 6 3 3 4 6 11 4 7 9 9 8 7 9 13 14 14 13 14 17 21 21 21 22
35 33 30 30 30 31 33 35 31 30 19 5 7 6 4 6 4 4 7 8 9 12 19 21 17 8 7 6 4 4 5 3 4 5 8 6 5 6 7 6 4 4 7 14 15 17 18 18 17 18 17 18 19 20
37 33 32 30 32 32 34 33 32 26 7 5 6 5 7 5 11 10 8 13 13 18 19 14 10 7 6 4 4 5 4 6 6 11 7 3 4 6 5 2 4 7 12 14 15 16 14 15 17 19 18 18 18 18
39 34 30 33 34 34 32 31 28 19 4 4 4 2 8 12 7 7 10 12 14 17 14 6 3 2 6 4 7 8 7 6 3 4 1 2 5 4 3 5 7 11 12 13 13 14 15 16 18 19 19 18 16 15
38 25 35 36 34 32 31 23 18 4 3 3 2 4 8 12 12 11 16 17 17 18 6 4 6 6 4 5 6 5 7 6 3 1 3 5 4 5 9 11 11 11 11 11 13 15 16 16 16 17 17 17 15 15
22 33 37 37 36 32 26 10 7 5 5 8 6 10 13 10 9 8 12 13 14 18 18 10 7 7 4 4 6 4 2 3 4 4 6 7 6 10 13 14 13 12 12 14 14 15 16 16 15 13 14 15 14 14
35 43 40 37 35 24 8 7 6 4 8 9 9 9 7 7 12 9 15 17 19 18 19 11 6 6 7 5 3 2 4 5 5 4 6 6 8 14 16 15 13 13 14 15 15 14 14 11 9 11 13 13 11 13
37 39 39 38 26 7 4 4 7 6 5 2 5 5 5 3 9 11 12 16 20 17 10 6 9 8 3 3 4 6 6 6 5 4 4 6 12 15 16 15 14 16 16 15 12 12 12 9 9 10 10 11 12 13
34 34 34 31 13 5 3 3 6 5 6 6 5 6 3 6 6 9 9 19 7 6 4 8 8 6 8 5 5 4 4 4 5 5 6 8 12 13 16 14 15 14 13 13 12 11 11 9 10 11 12 13 12 12
32 29 21 19 7 4 4 5 4 6 4 3 4 4 4 4 5 5 9 5 5 5 3 6 8 7 5 4 2 2 3 3 5 5 7 11 12 12 11 12 13 13 12 12 10 11 12 12 11 11 12 13 13 14
35 22 5 7 2 3 4 4 4 3 3 2 3 3 3 3 4 7 3 3 2 6 7 8 8 6 5 4 4 4 4 4 3 3 5 9 10 11 10 10 10 13 12 12 13 12 13 12 12 12 13 13 15 15
15 9 2 3 8 3 2 3 3 3 3 3 2 3 3 4 7 4 3 5 5 10 8 8 8 6 4 4 4 3 3 2 3 4 6 7 8 9 10 11 13 13 12 11 11 13 12 12 13 14 14 15 14 15
4 4 4 5 5 3 4 3 3 3 3 3 3 3 3 5 3 4 3 6 12 13 12 11 10 9 7 6 5 4 4 3 4 4 6 8 9 9 8 8 9 10 10 10 11 11 13 13 14 13 14 14 15 16
6 5 4 3 3 4 3 3 4 4 2 3 2 2 3 3 4 4 2 7 10 15 16 15 12 9 7 5 5 5 4 4 5 6 6 7 7 7 7 7 6 8 9 10 11 12 12 13 14 14 14 15 16 16
5 5 4 3 3 4 3 3 2 3 3 3 2 3 4 4 4 2 1 6 6 13 15 16 12 9 7 7 7 6 6 7 9 9 7 9 10 10 9 7 7 8 7 10 10 11 12 13 14 15 14 14 15 15
2 1 3 3 4 4 3 2 3 3 2 1 2 4 3 2 1 2 2 6 9 10 12 14 14 12 8 8 8 7 7 7 8 7 6 7 8 8 8 8 8 6 7 8 9 10 12 13 13 14 14 14 16 16
1 3 1 1 2 2 3 2 2 2 2 3 2 2 1 1 3 2 4 8 9 8 8 10 12 13 12 11 10 8 8 8 8 7 7 5 7 9 8 8 9 9 10 10 10 10 12 12 13 14 14 14 15 16
2 3 2 1 2 2 0 2 2 2 3 3 3 3 3 4 5 6 7 8 8 7 8 9 10 10 10 11 10 9 9 10 11 10 8 7 8 8 9 10 11 11 12 12 13 13 12 12 13 14 14 14 15 16
5 3 2 2 2 1 2 4 4 5 4 4 4 5 4 4 6 8 12 12 12 11 10 10 11 12 12 12 9 8 9 11 12 11 11 11 9 9 10 11 11 12 12 12 12 12 13 14 14 14 14 15 14 14
2 2 3 2 2 2 3 2 3 4 3 4 5 3 3 3 4 5 8 15 15 12 11 11 10 10 13 11 10 11 11 12 12 12 11 10 9 10 10 12 12 12 12 13 13 12 13 13 13 14 14 14 14 13
2 2 2 3 2 2 1 3 3 3 4 4 4 5 7 4 5 6 7 11 16 13 12 14 17 16 13 11 10 8 9 11 11 12 12 11 10 10 12 13 14 14 14 13 13 13 13 13 13 13 13 13 13 12
Wind_Direction
250 251 247 251 255 255 262 259 257 231 211 214 209 198 192 190 195 192 195 200 182 124 151 183 163 168 183 194 181 150 160 202 189 220 226 220 244 235 231 256 224 194 205 220 234 251 262 257 113 235 333 300 288 300
244 249 248 250 255 259 268 267 236 218 203 197 199 196 192 184 193 196 170 184 178 134 164 134 153 155 189 202 197 178 290 182 191 207 222 238 222 232 236 242 228 251 229 244 233 245 61 210 254 277 288 293 301 310
238 246 246 248 260 271 274 258 214 197 189 191 199 191 181 184 188 191 165 150 163 125 137 177 188 189 184 190 192 190 211 207 218 226 275 279 254 270 236 240 257 240 240 249 274 277 284 299 297 296 296 291 291 293
234 233 241 247 272 283 284 212 185 180 177 181 180 174 180 183 185 185 161 159 145 127 149 187 171 186 189 201 202 212 210 179 211 209 234 239 236 230 265 282 264 267 253 256 254 255 273 279 283 311 306 279 268 298
217 218 221 231 276 320 136 156 155 170 173 175 167 158 161 161 156 148 151 161 158 149 166 146 180 199 197 191 184 196 214 222 226 233 232 238 251 277 262 268 263 260 259 252 256 255 257 279 301 294 283 264 261 234
202 199 194 198 266 40 110 134 140 141 149 150 150 147 145 143 139 133 107 165 172 134 120 145 130 180 197 209 219 227 231 228 252 259 262 262 255 252 260 253 248 245 252 259 272 269 266 282 286 277 257 243 221 210
185 177 172 169 202 98 116 111 117 120 123 126 130 139 146 141 127 107 112 154 178 155 98 140 158 170 186 197 215 222 220 227 240 244 241 250 238 237 255 256 263 261 256 258 261 262 259 275 273 269 236 215 205 192
181 180 169 159 158 134 125 125 124 127 129 132 135 135 137 141 130 81 83 152 145 139 126 184 133 149 176 185 201 213 218 225 230 242 252 253 250 248 252 250 252 253 257 260 261 261 267 270 261 236 217 197 189 190
175 175 174 164 152 153 140 134 132 131 131 131 134 133 128 126 120 126 109 141 151 169 196 206 172 170 178 202 198 181 208 224 236 237 234 244 234 230 243 246 246 253 257 263 261 262 257 234 233 221 210 202 197 192
172 167 167 166 158 151 150 145 139 140 137 135 126 102 96 140 147 138 121 132 195 228 234 218 206 158 180 179 189 171 196 233 241 231 234 234 244 251 256 256 257 259 261 262 265 252 228 224 219 212 206 204 198 192
170 167 161 159 158 153 152 151 149 145 142 134 121 93 139 145 142 161 150 185 191 210 212 214 202 164 186 186 194 209 191 236 243 235 214 243 258 250 257 257 262 261 258 254 252 252 236 233 217 198 193 193 189 184
176 168 163 158 158 157 153 151 152 150 150 155 141 126 135 170 177 188 191 189 214 217 188 196 185 189 178 188 205 196 220 232 245 150 227 255 264 272 280 279 279 279 260 248 237 224 223 208 196 184 183 182 182 180
175 173 169 163 159 162 160 157 154 151 140 132 138 152 174 176 202 211 182 215 203 170 186 175 176 163 139 187 216 201 225 237 301 226 241 259 272 261 311 309 299 295 271 237 193 192 190 178 173 173 179 187 188 190
165 164 164 165 163 162 164 166 167 159 151 129 164 143 208 180 205 209 209 195 172 174 175 174 174 177 168 176 210 231 228 230 238 229 248 264 20 341 310 296 288 243 186 169 165 166 171 177 179 178 188 189 186 182
164 159 159 159 162 163 168 172 174 170 188 214 172 189 197 211 182 206 201 170 159 157 162 150 166 187 173 186 205 231 231 230 218 241 271 34 329 310 293 255 192 179 176 173 172 175 178 173 169 164 171 175 176 178
157 154 164 162 163 169 170 170 171 184 260 233 221 226 210 181 187 189 212 197 177 159 160 182 159 230 210 209 203 211 231 228 219 249 21 325 314 280 220 190 158 156 159 160 163 165 161 161 163 164 166 169 172 179
156 158 166 165 166 163 160 162 184 228 258 265 246 258 264 223 200 195 197 196 183 182 195 197 173 232 213 216 208 224 238 264 342 350 293 292 272 215 174 157 162 167 169 168 164 163 164 165 165 165 165 167 173 176
155 164 159 161 162 161 166 177 200 236 242 243 244 234 247 229 186 189 202 195 194 207 207 219 229 224 228 224 242 247 258 266 281 267 275 280 225 185 170 169 169 172 169 164 163 159 157 156 157 158 169 172 176 181
160 158 162 160 154 151 161 207 228 268 242 239 252 258 230 211 211 214 201 200 201 207 210 215 241 251 253 254 301 343 275 259 277 272 280 264 196 178 174 172 169 165 162 159 155 154 155 150 156 167 174 175 172 174
153 158 162 161 151 170 200 212 215 258 273 303 253 213 201 215 200 206 200 197 198 190 203 226 235 251 266 254 244 257 270 253 229 238 227 209 189 178 176 171 167 166 162 159 158 162 161 161 163 170 175 170 174 173
149 159 165 165 196 277 229 240 227 256 261 254 229 201 182 170 179 180 163 175 182 202 209 221 220 211 227 236 256 254 232 222 230 238 209 180 174 173 171 174 179 171 174 175 178 183 181 182 189 190 193 188 185 185
152 156 171 194 235 267 270 251 264 294 253 270 204 213 187 178 153 145 147 178 195 186 198 192 186 185 183 182 177 187 217 200 225 213 202 187 167 170 173 177 177 182 187 196 195 203 194 204 203 200 189 189 190 183
165 186 159 176 241 270 252 260 251 238 262 191 202 200 168 145 135 147 183 201 163 188 177 173 175 168 165 178 204 218 207 171 156 178 179 169 179 179 177 180 184 193 190 197 202 204 207 215 206 197 198 184 182 185
198 207 195 211 207 252 263 245 241 261 256 241 205 169 155 140 162 207 215 184 177 174 176 174 167 164 160 173 185 186 190 192 203 206 194 186 182 184 191 198 201 200 203 215 211 213 221 213 206 199 185 181 182 168
204 204 206 222 220 243 232 227 222 224 244 226 207 178 168 176 199 210 221 176 183 185 183 177 181 190 191 186 184 199 226 207 201 188 203 188 191 190 188 193 203 218 228 227 222 217 203 199 186 182 175 173 170 167
219 199 230 228 221 224 226 255 219 224 218 232 221 151 182 196 200 228 180 166 178 189 188 183 181 181 183 185 190 192 189 181 171 178 194 193 190 192 198 195 212 231 224 211 205 192 192 183 183 179 171 175 172 172
203 202 204 225 247 250 248 258 250 249 238 234 194 192 198 222 221 119 128 174 166 185 183 185 183 191 191 190 196 211 206 187 181 199 222 207 208 202 198 199 208 232 230 204 199 194 188 186 185 181 180 180 182 187
126 139 199 192 209 215 221 222 229 228 231 256 242 211 238 285 40 122 154 207 193 189 192 197 201 194 185 200 219 225 217 207 206 216 221 217 218 220 222 219 217 216 192 188 189 187 184 184 185 186 192 195 195 199
39 342 282 308 250 206 216 231 229 208 262 249 254 244 261 264 215 193 190 186 181 180 191 204 212 218 223 225 220 225 218 214 214 211 200 201 219 223 219 208 202 200 197 195 192 190 188 189 192 198 199 199 199 197
351 342 276 241 243 240 232 273 299 288 271 271 267 276 269 268 252 224 203 201 202 207 212 213 222 212 212 209 213 216 221 219 211 194 212 221 216 234 211 209 206 204 203 203 204 202 200 204 205 203 201 194 189 189
321 304 277 279 277 298 309 287 285 283 282 274 274 269 288 295 290 250 232 228 225 224 221 215 210 203 201 203 210 226 236 234 224 219 220 225 237 229 216 211 209 207 206 206 204 204 201 196 197 196 192 193 196 197
296 306 293 281 266 274 295 279 280 272 268 260 256 246 279 275 265 250 242 221 218 216 208 199 203 215 214 222 236 243 233 235 226 222 223 228 234 227 218 212 207 203 199 196 195 194 193 196 193 194 196 197 197 201
249 241 263 271 265 273 276 297 260 276 244 251 251 241 245 254 261 253 248 224 205 204 209 204 209 217 227 228 231 230 225 226 224 222 226 233 236 223 213 207 204 201 198 197 194 191 190 191 197 199 199 201 202 202